Theta_e
312 314 315 315 320 324 323 322 323 320 319 319 319 317 315 314 312 311 308 306 304 302 302 300 299 299 298 299 298 296 293 293 289 287 287 286 285 285 285 286 287 285 285
308 308 308 309 310 315 319 320 319 317 315 316 313 311 310 309 309 308 305 304 302 300 300 299 298 298 297 296 293 289 288 287 286 283 284 284 283 284 283 283 286 288 285
306 306 306 305 305 303 304 311 313 312 311 310 309 308 307 305 305 305 304 302 301 299 299 297 297 296 292 289 287 286 286 287 285 281 281 282 282 282 281 281 282 282 286
304 304 303 302 302 302 302 303 303 306 305 305 305 304 301 302 300 299 299 299 298 297 296 295 294 291 286 285 285 284 284 282 281 279 278 279 280 281 277 277 276 277 279
302 302 302 303 301 303 302 301 300 300 300 300 299 297 296 295 294 294 295 295 293 291 290 289 289 287 287 287 285 283 283 280 280 278 277 276 276 277 277 277 275 275 276
299 299 300 302 297 297 295 294 294 293 294 294 293 293 292 290 295 295 294 291 289 288 286 286 285 285 287 290 289 288 286 282 277 277 276 275 278 278 277 275 275 272 271
296 295 295 296 294 293 293 291 291 291 291 292 292 292 291 291 295 295 292 289 288 287 285 284 284 284 284 285 289 290 288 289 287 281 278 279 280 280 278 273 274 273 273
291 292 294 292 291 291 290 289 289 290 290 290 290 290 290 291 294 293 289 287 286 285 284 284 284 283 284 284 283 281 282 283 283 283 281 281 281 281 279 278 276 273 274
289 292 292 289 288 287 287 287 288 287 287 287 288 288 288 288 292 292 288 286 285 284 284 283 284 284 287 287 282 280 281 281 284 285 285 285 284 282 280 274 268 267 266
289 289 290 289 288 288 287 286 285 286 286 286 286 287 287 287 291 291 288 285 283 283 283 283 284 284 288 287 282 281 280 279 279 280 282 281 281 279 279 277 274 266 268
285 283 288 287 287 287 287 285 286 285 285 285 285 285 286 286 289 290 289 285 284 283 283 282 284 287 288 288 285 282 281 281 280 278 278 277 277 277 276 276 276 272 267
281 282 284 286 285 286 287 285 285 285 285 285 285 283 284 284 287 290 290 287 287 283 282 283 283 287 288 288 285 284 284 281 277 276 275 275 275 275 274 274 274 273 273
283 284 284 284 285 285 285 285 284 285 285 284 284 283 283 283 285 289 290 289 288 283 284 284 285 287 287 287 285 284 281 276 275 274 274 275 274 274 272 271 272 272 271
278 278 280 284 283 284 284 284 285 284 284 284 284 284 283 283 284 285 286 287 286 285 285 284 285 286 285 283 281 282 276 275 275 274 274 273 272 271 270 270 267 268 264
276 276 277 279 282 282 282 283 283 284 286 285 285 285 284 282 284 286 286 285 285 284 282 282 283 282 280 277 276 274 273 273 273 273 272 271 270 270 270 269 268 265 262
277 277 277 276 277 278 279 280 286 287 287 288 289 287 285 288 288 288 288 288 287 286 281 280 280 279 278 276 274 273 272 271 272 272 271 271 270 269 269 268 268 265 263
273 275 275 276 276 276 276 277 278 281 286 286 286 287 288 287 288 288 288 288 288 286 280 279 279 278 277 276 274 273 272 272 272 272 271 270 270 269 268 267 266 265 263
273 275 273 275 275 275 275 277 278 279 280 277 282 284 286 287 287 288 288 288 284 285 281 278 278 277 276 276 275 274 273 272 271 271 270 270 269 268 266 266 266 264 263
271 273 273 274 274 274 273 273 279 279 279 276 272 279 280 286 286 287 288 285 283 282 282 278 278 278 277 277 276 275 274 272 271 270 270 269 268 267 266 266 265 265 263
269 272 271 269 270 275 278 278 278 278 279 279 279 274 273 276 281 283 284 284 284 283 282 281 278 278 278 278 277 276 274 272 270 269 269 269 267 267 266 265 265 263 262
267 269 270 274 275 276 277 277 277 278 278 278 279 277 283 281 279 280 281 282 283 284 282 281 280 278 278 278 276 275 273 272 270 269 269 268 267 265 266 265 264 263 262
265 266 265 266 271 274 275 275 276 276 276 277 278 279 282 281 282 281 281 282 283 284 284 283 281 280 278 277 276 275 273 272 270 269 269 268 266 265 264 263 262 262 261
263 262 262 263 264 266 269 269 272 273 274 274 275 275 276 277 278 279 280 282 282 283 284 284 283 280 278 277 277 275 273 272 271 270 268 267 266 264 263 262 262 261 260
262 262 262 260 261 263 263 266 266 266 267 268 269 271 272 273 274 275 277 279 280 281 282 281 280 278 276 275 274 274 274 273 272 270 269 267 265 264 263 262 261 260 260
258 258 259 260 260 261 262 262 263 263 264 266 268 269 270 271 271 272 273 274 275 276 276 274 275 275 275 274 272 272 272 272 271 270 268 267 265 263 262 261 261 260 260
256 256 257 258 258 257 257 259 261 262 263 264 265 266 268 269 270 271 271 272 272 272 272 273 271 271 272 272 271 271 270 271 269 268 267 266 264 262 262 261 260 260 259
Wind_Speed
5 5 6 6 6 10 11 9 8 5 6 6 7 6 7 8 8 7 7 8 9 8 7 9 7 7 5 4 3 2 2 2 3 2 3 2 2 3 2 2 1 3 3
5 5 5 3 4 7 11 6 6 6 5 6 5 6 6 7 8 9 9 9 11 11 10 10 9 6 6 5 4 4 3 2 4 4 1 2 2 2 1 1 2 3 3
5 6 5 5 5 6 5 4 5 6 5 4 5 6 6 7 7 7 9 10 10 10 11 11 11 9 6 4 4 5 4 2 2 4 3 1 2 2 1 2 2 3 3
5 6 5 5 4 4 3 3 3 3 5 6 6 7 6 6 6 7 8 9 8 8 8 8 9 9 8 8 6 7 5 5 2 3 2 2 2 1 2 1 3 1 3
7 7 7 6 5 4 4 3 3 4 4 5 6 6 6 6 5 7 7 8 9 7 6 6 7 8 11 10 8 7 7 4 3 3 2 2 1 2 2 1 1 2 3
6 7 6 6 6 6 5 5 5 4 4 5 5 6 6 4 11 13 10 9 8 9 9 6 6 8 10 13 12 12 9 7 5 4 3 3 3 3 2 1 0 2 3
7 6 6 6 7 7 7 7 7 6 5 6 6 6 5 5 11 10 11 7 9 8 9 9 7 5 7 7 12 13 11 12 9 5 5 4 4 4 4 2 3 2 3
5 5 4 5 6 6 5 5 5 6 8 6 7 7 7 6 13 13 11 7 7 7 8 9 10 10 9 10 9 7 5 5 5 3 4 5 4 5 5 4 4 2 2
3 5 4 3 1 1 2 2 2 2 2 2 2 6 5 5 15 17 13 7 7 7 7 8 9 10 15 18 10 9 7 4 6 8 8 9 9 7 4 3 1 3 2
2 5 6 5 6 6 5 5 1 1 1 3 4 4 6 7 14 16 11 7 7 6 6 6 10 9 18 20 10 10 10 8 7 5 6 7 7 6 6 3 3 3 2
2 2 5 3 4 4 5 3 3 3 4 3 3 2 3 6 10 17 15 7 7 7 7 7 7 18 20 20 14 8 7 9 11 6 5 4 4 4 3 3 2 3 2
4 4 2 2 1 3 6 5 4 5 4 3 4 2 2 3 9 17 17 12 12 9 9 7 7 17 19 19 12 13 12 12 6 6 5 5 5 4 4 3 3 1 1
5 5 4 3 2 2 2 3 2 4 4 4 5 4 4 4 4 15 17 15 15 7 6 10 14 18 18 14 14 15 10 6 7 6 6 5 3 4 4 3 1 2 3
5 4 3 4 3 3 1 1 2 3 3 3 5 5 4 5 5 5 7 8 9 6 10 9 13 14 13 8 8 11 6 6 6 6 5 3 4 3 3 2 2 2 1
5 3 3 3 2 2 1 2 1 1 4 3 4 5 5 6 9 11 11 9 8 9 8 6 7 8 7 6 6 5 5 5 6 5 4 5 4 4 4 3 2 1 2
5 4 3 2 3 2 1 2 5 8 6 8 7 7 3 8 11 18 19 19 18 19 6 9 9 9 10 9 9 8 7 8 7 6 6 6 6 6 5 3 2 3 3
3 4 3 3 3 2 1 1 2 3 9 9 8 10 10 8 11 17 20 22 21 20 9 9 10 11 10 9 9 9 9 8 8 7 7 7 7 6 8 6 5 4 3
5 6 3 3 2 2 2 2 2 2 4 2 7 11 12 11 11 15 19 18 10 16 9 9 9 9 9 10 10 10 9 8 9 9 9 9 8 8 6 7 7 6 5
5 4 4 4 4 3 3 3 3 3 4 4 3 4 7 13 13 14 18 10 10 10 11 10 9 10 10 10 10 10 10 10 10 10 10 10 9 8 8 6 7 8 6
5 8 5 3 3 4 4 4 4 4 4 5 4 3 3 2 5 7 8 9 10 9 10 11 10 10 10 10 10 10 10 10 11 11 10 10 9 9 9 9 9 9 7
4 5 8 7 6 5 5 5 4 5 5 5 6 4 12 5 6 6 7 8 10 10 10 11 10 10 11 10 10 10 10 10 11 11 11 10 10 11 10 8 8 8 7
5 4 4 3 5 7 7 6 6 6 6 6 6 6 15 7 7 6 7 9 9 10 9 10 10 10 11 11 11 11 12 12 11 12 12 12 11 10 9 9 8 7 7
4 3 3 3 3 5 4 4 6 6 6 7 7 7 7 7 8 8 9 8 8 9 9 10 10 8 8 9 10 11 12 13 13 12 12 12 12 12 11 10 8 8 8
4 5 4 3 3 3 3 5 4 5 5 5 6 7 7 7 8 10 9 10 9 8 8 7 6 10 9 9 9 10 10 10 9 12 16 13 13 13 10 11 12 12 9
3 3 4 4 4 5 5 5 5 5 5 6 7 7 7 8 8 8 8 8 9 9 10 6 5 7 8 10 11 12 13 15 13 13 12 14 15 17 13 11 11 10 10
4 5 4 4 4 4 3 4 5 6 7 7 7 8 9 9 8 8 8 8 8 8 9 6 6 9 9 8 11 14 15 16 15 18 13 12 12 12 11 12 15 10 10
Wind_Direction
181 172 177 200 206 222 224 224 221 171 174 177 177 178 169 168 158 158 148 150 139 136 138 141 143 146 157 149 145 128 151 122 120 57 103 119 97 99 39 6 347 343 330
156 159 167 177 189 222 228 217 194 177 177 183 174 168 163 167 163 159 152 156 149 151 152 147 154 156 160 150 143 139 123 65 122 128 113 140 146 154 128 13 330 334 326
155 156 163 178 184 202 221 191 159 154 169 158 157 168 174 168 164 157 155 154 154 159 158 159 166 162 153 147 137 138 128 97 98 131 150 132 147 109 9 350 8 327 320
172 164 177 182 200 205 198 205 158 139 160 164 170 167 171 153 153 145 153 145 150 157 158 159 161 161 155 152 148 155 145 140 131 112 102 135 145 195 106 122 335 319 292
177 173 183 187 180 176 127 144 139 178 192 170 152 142 142 136 147 148 154 149 149 139 132 138 142 145 158 162 156 158 143 146 148 145 139 116 107 49 145 252 311 318 310
180 195 190 168 161 152 165 176 165 169 164 155 161 158 152 156 168 168 154 156 147 148 148 145 148 145 154 151 152 158 158 156 164 150 179 147 173 172 113 119 243 18 335
182 192 183 167 183 184 175 168 173 174 158 162 164 164 170 163 173 169 150 148 149 159 160 154 149 156 144 140 143 147 165 172 178 161 151 166 152 162 143 187 195 170 236
184 195 209 188 196 190 177 174 171 169 178 173 174 174 162 174 178 167 149 142 150 160 164 162 164 163 167 153 144 138 149 140 151 140 136 145 131 133 149 170 185 209 301
183 193 222 216 170 120 205 177 179 129 142 159 177 167 171 167 173 165 154 148 151 159 159 161 166 168 171 164 152 154 150 153 152 144 141 142 133 129 140 100 65 92 291
204 200 190 187 179 183 177 163 133 93 140 139 157 184 159 158 181 176 159 149 150 158 158 163 175 177 177 178 169 166 171 178 161 148 144 147 142 145 133 117 149 156 182
327 165 188 192 191 172 147 127 139 140 135 149 141 130 146 166 177 184 178 165 166 164 175 176 185 187 186 186 180 180 181 152 174 158 150 150 153 159 144 123 122 158 166
44 62 65 201 130 151 151 139 148 150 157 162 149 153 165 165 180 191 195 183 173 174 185 180 178 186 188 190 181 184 181 165 145 160 168 179 178 173 160 129 139 192 251
64 64 59 57 59 74 114 137 132 163 170 171 183 188 188 176 187 196 200 198 195 187 174 174 175 184 188 191 181 189 165 176 156 177 194 183 169 153 130 130 136 209 244
70 63 67 77 70 64 67 135 151 168 198 192 196 208 192 184 193 195 199 200 198 173 163 171 181 185 180 166 174 185 162 184 177 188 187 140 132 171 144 135 147 168 111
44 43 52 74 81 89 277 188 168 202 203 216 219 211 197 203 213 199 190 190 185 174 148 152 179 180 175 170 177 160 170 179 187 175 162 161 182 186 162 143 151 164 166
28 20 17 29 36 29 0 335 274 246 255 254 253 212 228 234 206 205 205 202 192 175 166 190 194 193 196 191 193 192 189 188 198 181 182 183 190 189 168 155 156 182 185
11 2 352 35 11 359 331 274 288 296 257 255 268 264 246 222 212 201 206 207 198 187 202 204 203 200 203 199 198 196 202 197 187 192 193 195 187 187 174 181 182 183 199
5 22 13 352 8 354 336 299 296 300 304 280 261 252 258 251 232 215 211 211 208 204 206 209 210 205 207 208 203 204 195 180 191 194 195 193 191 185 181 192 188 188 186
6 3 354 356 345 340 327 322 315 309 303 285 310 271 258 245 241 235 224 221 218 216 216 210 212 209 210 213 209 203 198 191 194 197 197 190 191 190 198 191 184 187 169
351 358 356 343 334 334 345 331 325 317 306 309 298 269 278 229 235 227 226 232 230 224 220 225 215 215 213 212 214 204 198 192 192 194 200 195 193 193 197 188 184 181 185
341 349 354 358 354 346 335 320 316 311 311 310 306 285 286 250 244 243 242 238 243 243 232 225 222 215 216 211 205 204 204 200 201 196 198 194 194 194 196 192 188 188 177
346 348 347 341 330 341 335 326 317 314 311 310 311 306 306 296 283 261 248 247 246 247 247 241 233 225 213 211 208 210 208 206 200 200 197 195 195 195 182 183 187 191 187
326 331 334 329 323 317 322 317 321 325 325 322 320 315 313 303 297 290 282 277 266 259 249 243 244 227 212 215 211 208 208 210 209 199 197 190 188 188 183 186 186 183 190
331 339 335 317 316 310 310 332 316 305 307 307 310 312 310 304 302 305 310 306 297 296 297 283 240 221 213 216 216 215 222 222 206 202 193 191 190 189 179 179 184 185 187
336 331 329 327 328 329 335 326 319 314 312 313 311 309 308 304 300 299 298 300 300 298 300 276 267 268 258 235 230 223 221 221 207 196 191 193 191 185 187 183 181 180 180
333 337 329 326 327 324 315 313 314 317 316 317 318 315 310 306 305 307 307 302 298 295 295 289 261 260 261 254 246 237 225 219 209 196 187 185 182 182 180 183 180 176 175